�N����,����,�~����,�C��,���x,�C��,����,���ϕ���,�ő�u�ԕ���,�ő厞����,���˗�,�I�_���x,�n�����x
"17/07/01","01:00",0.0,23.9,92.8,1004.5,265.3,0.6,1.4,353.5,0.00,22.7,23.9
"17/07/01","02:00",0.0,24.1,93.1,1004.8,334.8,0.7,1.7,17.9,0.00,23.0,23.9
"17/07/01","03:00",0.0,24.0,94.0,1004.3,222.2,0.1,1.2,345.5,0.00,23.0,23.5
"17/07/01","04:00",0.0,24.0,94.7,1003.8,14.6,0.3,1.7,65.0,0.00,23.1,23.8
"17/07/01","05:00",0.0,24.1,94.9,1004.3,255.6,0.1,2.1,229.6,0.00,23.3,23.9
"17/07/01","06:00",0.0,24.8,94.4,1004.1,350.7,1.1,2.9,243.7,0.00,23.9,23.6
"17/07/01","07:00",0.0,25.7,84.8,1004.5,303.9,1.7,6.4,1.4,0.15,23.0,23.7
"17/07/01","08:00",0.0,26.5,81.0,1004.5,275.8,1.2,5.4,341.2,0.46,23.0,24.0
"17/07/01","09:00",0.0,26.7,77.5,1004.5,248.2,1.2,5.5,179.2,0.44,22.5,23.9
"17/07/01","10:00",0.0,27.7,74.3,1002.9,258.5,1.5,7.2,299.6,1.71,22.7,24.4
"17/07/01","11:00",0.0,29.4,70.1,1003.1,249.3,1.6,6.7,233.7,1.65,23.4,25.1
"17/07/01","12:00",0.0,30.8,67.7,1003.6,245.1,1.7,6.6,200.8,2.65,24.2,26.2
"17/07/01","13:00",0.0,30.2,71.5,1003.1,194.9,1.6,5.5,224.5,1.28,24.5,26.7
"17/07/01","14:00",0.0,30.1,69.7,1003.1,218.0,1.5,5.5,216.4,2.01,24.0,26.7
"17/07/01","15:00",0.0,30.6,68.7,1001.7,218.0,1.8,5.1,211.0,1.26,24.2,27.1
"17/07/01","16:00",0.0,31.5,64.4,1003.1,207.6,1.1,4.7,338.1,1.97,24.0,27.4
"17/07/01","17:00",0.0,31.0,65.6,1001.5,195.4,1.7,4.1,205.2,0.87,23.8,27.8
"17/07/01","18:00",0.0,29.7,70.6,1001.0,181.6,1.3,4.1,174.2,0.34,23.8,27.3
"17/07/01","19:00",0.0,28.7,75.3,1001.9,343.4,1.0,2.8,217.6,0.00,23.9,26.8
"17/07/01","20:00",0.0,26.6,83.1,1002.6,287.7,0.6,2.2,333.9,0.00,23.5,26.6
"17/07/01","21:00",0.0,25.9,86.8,1003.8,327.6,0.6,2.6,332.3,0.00,23.6,26.1
"17/07/01","22:00",0.0,24.9,90.3,1004.3,320.7,1.1,2.2,342.8,0.00,23.2,25.5
"17/07/01","23:00",0.0,24.5,91.7,1004.5,315.1,1.0,1.6,318.0,0.00,23.1,25.3
"17/07/01","24:00",0.0,24.0,93.0,1004.5,301.6,0.6,1.7,345.6,0.00,22.8,25.0
"17/07/02","01:00",0.0,23.5,93.9,1004.5,306.2,0.7,1.3,341.0,0.00,22.5,24.8
"17/07/02","02:00",0.0,23.3,94.4,1004.5,324.8,1.1,1.3,330.9,0.00,22.4,24.6
"17/07/02","03:00",0.0,23.1,94.9,1005.2,307.4,1.0,1.4,320.3,0.00,22.3,24.3
"17/07/02","04:00",0.0,23.1,94.9,1005.5,292.6,0.7,1.4,312.7,0.00,22.3,24.0
"17/07/02","05:00",0.0,23.0,95.2,1005.7,314.8,0.8,1.6,328.3,0.00,22.2,24.1
"17/07/02","06:00",0.0,23.4,95.5,1006.0,269.9,0.5,1.8,337.5,0.00,22.7,23.7
"17/07/02","07:00",0.0,25.1,93.3,1006.7,279.9,0.1,1.2,343.6,0.24,24.0,23.8
"17/07/02","08:00",0.0,26.9,84.5,1006.4,164.5,0.7,1.6,187.1,0.75,24.1,24.4
"17/07/02","09:00",0.0,28.5,80.6,1005.2,131.7,0.8,2.4,146.1,1.02,24.9,25.1
"17/07/02","10:00",0.0,30.4,71.6,1006.7,136.3,0.6,2.1,120.2,1.93,24.7,26.0
"17/07/02","11:00",0.0,31.0,69.9,1006.4,145.2,1.3,3.3,192.0,2.47,24.9,26.9
"17/07/02","12:00",0.0,31.7,62.6,1005.7,212.3,1.5,3.7,223.3,1.67,23.7,27.4
"17/07/02","13:00",0.0,31.7,64.8,1005.2,174.3,2.3,4.0,187.3,2.12,24.3,28.1
"17/07/02","14:00",0.0,31.1,64.2,1003.8,224.5,2.2,5.5,211.3,1.21,23.6,27.8
"17/07/02","15:00",0.0,24.7,88.8,1004.5,344.6,1.2,9.0,337.7,0.03,22.8,26.3
"17/07/02","16:00",0.0,24.4,91.4,1005.0,328.9,1.1,4.4,338.2,0.04,22.9,26.0
"17/07/02","17:00",0.0,26.1,87.4,1004.5,30.0,0.8,2.5,345.0,0.70,23.9,25.7
"17/07/02","18:00",0.0,26.6,86.7,1004.3,290.8,1.0,1.9,341.5,0.35,24.2,25.9
"17/07/02","19:00",0.0,25.4,90.1,1005.2,332.3,2.5,4.0,327.6,0.03,23.7,26.0
"17/07/02","20:00",0.0,25.0,92.2,1006.2,74.8,0.6,4.7,339.7,0.00,23.7,25.5
"17/07/02","21:00",0.0,24.6,93.3,1006.7,33.9,0.2,1.4,342.3,0.00,23.5,25.3
"17/07/02","22:00",0.0,24.2,94.0,1006.9,250.8,0.5,1.6,4.4,0.00,23.2,25.2
"17/07/02","23:00",0.0,24.0,94.5,1006.4,333.8,0.7,1.7,323.1,0.00,23.1,25.0
"17/07/02","24:00",0.0,23.4,95.0,1006.2,340.8,0.5,0.9,338.8,0.00,22.6,24.5
"17/07/03","01:00",0.0,23.1,95.4,1006.0,264.8,0.2,1.1,327.8,0.00,22.4,24.5
"17/07/03","02:00",0.0,22.9,95.8,1005.2,257.3,0.5,1.0,352.4,0.00,22.2,24.4
"17/07/03","03:00",0.0,22.5,96.0,1005.5,224.7,0.1,0.8,224.5,0.00,21.9,24.0
"17/07/03","04:00",0.0,22.4,96.3,1005.2,325.0,0.5,1.0,351.6,0.00,21.8,23.9
"17/07/03","05:00",0.0,22.3,96.6,1005.5,301.3,0.3,1.0,322.8,0.00,21.8,23.7
"17/07/03","06:00",0.0,22.8,96.8,1005.5,241.1,0.1,1.0,317.4,0.01,22.3,23.7
"17/07/03","07:00",0.0,24.6,95.1,1005.5,10.4,0.3,1.0,3.6,0.28,23.8,23.9
"17/07/03","08:00",0.0,25.8,89.6,1005.7,318.4,0.3,1.2,6.3,0.53,24.0,24.3
"17/07/03","09:00",0.0,28.1,82.9,1005.2,65.5,0.5,1.6,51.7,0.80,25.0,24.7
"17/07/03","10:00",0.0,29.8,77.3,1005.5,95.3,0.8,1.8,36.1,1.86,25.4,25.6
"17/07/03","11:00",0.0,31.4,66.7,1005.2,240.9,1.2,4.8,345.4,2.39,24.5,26.7
"17/07/03","12:00",0.0,32.1,63.9,1005.2,299.4,1.8,5.4,330.8,2.91,24.4,27.8
"17/07/03","13:00",0.0,32.4,64.3,1004.3,286.6,1.0,5.8,340.6,1.96,24.8,28.1
"17/07/03","14:00",0.0,32.5,57.3,1004.1,316.0,2.3,9.1,342.9,2.32,23.0,28.2
"17/07/03","15:00",0.0,32.5,56.1,1003.1,241.8,2.2,6.7,228.9,2.37,22.7,28.3
"17/07/03","16:00",0.0,32.1,57.9,1002.6,261.4,1.2,5.8,229.6,1.65,22.8,28.4
"17/07/03","17:00",0.0,31.3,61.7,1002.2,223.9,2.1,5.1,226.0,1.21,23.1,28.4
"17/07/03","18:00",0.0,30.7,63.6,1001.7,230.2,1.5,4.2,224.1,0.51,23.0,28.2
"17/07/03","19:00",0.0,29.6,66.4,1001.2,235.8,1.6,5.4,221.0,0.12,22.7,27.6
"17/07/03","20:00",0.0,27.3,76.9,1002.4,4.1,1.1,4.5,215.3,0.00,22.9,27.2
"17/07/03","21:00",0.0,26.2,83.1,1003.1,316.0,0.8,2.1,333.2,0.00,23.1,26.8
"17/07/03","22:00",0.0,25.8,85.2,1003.6,336.3,1.2,2.2,349.7,0.00,23.2,26.6
"17/07/03","23:00",0.0,24.9,87.7,1003.6,323.7,1.0,2.0,342.8,0.00,22.8,26.1
"17/07/03","24:00",0.0,24.4,89.4,1003.4,322.1,0.8,1.8,352.9,0.00,22.6,25.6
"17/07/04","01:00",0.0,24.2,90.4,1003.8,306.9,0.3,1.9,321.4,0.00,22.6,25.4
"17/07/04","02:00",0.0,24.5,90.8,1002.9,307.9,0.7,1.6,322.3,0.00,22.9,25.2
"17/07/04","03:00",0.0,24.4,91.0,1002.9,307.6,0.7,2.1,341.4,0.00,22.9,25.0
"17/07/04","04:00",0.0,25.2,89.6,1003.1,283.9,0.8,2.0,325.9,0.00,23.4,25.0
"17/07/04","05:00",0.0,25.1,88.8,1003.4,323.6,0.7,1.8,338.9,0.00,23.2,24.9
"17/07/04","06:00",0.0,24.7,90.9,1003.6,309.0,0.8,1.6,326.1,0.00,23.2,24.7
"17/07/04","07:00",0.0,25.5,90.5,1003.1,291.9,0.7,1.6,335.9,0.03,23.9,24.7
"17/07/04","08:00",0.0,27.3,84.1,1002.9,351.8,0.6,1.6,304.2,0.31,24.4,25.1
"17/07/04","09:00",0.0,28.1,81.3,1002.6,341.2,0.6,1.9,340.2,0.50,24.6,25.3
"17/07/04","10:00",0.0,28.7,78.5,1001.7,359.5,1.0,1.8,339.3,0.70,24.6,25.6
"17/07/04","11:00",0.0,30.6,71.6,1001.9,225.8,1.2,4.0,218.7,1.16,24.9,26.1
"17/07/04","12:00",0.0,30.5,69.6,1001.2,234.5,0.8,3.9,218.8,1.12,24.4,26.6
"17/07/04","13:00",0.0,29.4,74.0,1000.0,222.9,1.5,4.3,221.0,0.84,24.3,26.8
"17/07/04","14:00",0.0,27.2,85.3,999.3,6.0,1.2,4.0,226.9,0.18,24.6,26.4
"17/07/04","15:00",0.0,26.0,88.8,998.4,21.3,0.7,2.4,24.6,0.09,24.0,26.4
"17/07/04","16:00",0.0,25.4,92.2,997.4,24.6,0.6,1.6,61.8,0.03,24.1,25.9
"17/07/04","17:00",0.0,25.5,92.6,996.7,273.4,0.6,1.6,36.4,0.08,24.3,25.8
"17/07/04","18:00",0.0,25.3,92.7,996.3,239.6,0.5,1.8,327.5,0.02,24.1,25.6
"17/07/04","19:00",0.0,25.5,93.2,997.4,311.1,0.8,2.8,334.8,0.05,24.4,25.5
"17/07/04","20:00",0.0,24.8,92.4,998.9,281.1,1.0,2.6,347.3,0.02,23.5,25.6
"17/07/04","21:00",0.0,24.5,92.8,999.8,324.7,0.6,3.4,340.7,0.00,23.3,25.4
"17/07/04","22:00",0.0,24.9,91.5,1000.8,257.6,0.8,2.4,222.0,0.00,23.5,25.1
"17/07/04","23:00",0.0,24.9,89.3,1001.0,296.0,0.7,2.5,233.4,0.00,23.1,24.9
"17/07/04","24:00",0.0,24.1,91.8,1001.2,306.9,0.6,1.8,342.6,0.00,22.7,24.6
"17/07/05","01:00",0.0,23.6,93.9,1001.5,327.7,1.0,1.8,345.0,0.00,22.6,24.4
"17/07/05","02:00",0.0,23.4,94.8,1001.0,313.0,0.6,1.8,334.3,0.00,22.6,24.5
"17/07/05","03:00",0.0,23.2,95.3,1001.7,20.3,0.2,2.6,339.6,0.00,22.4,24.2
"17/07/05","04:00",0.0,23.2,95.5,1001.7,242.4,0.2,1.2,169.1,0.00,22.5,24.2
"17/07/05","05:00",0.0,23.2,95.7,1002.4,322.4,0.3,1.1,323.8,0.00,22.5,24.0
"17/07/05","06:00",0.0,23.4,95.8,1003.4,230.1,0.2,1.3,167.0,0.00,22.7,24.1
"17/07/05","07:00",0.0,23.6,95.7,1003.4,346.4,0.3,1.7,326.9,0.01,22.9,24.1
"17/07/05","08:00",0.0,24.2,95.4,1004.3,197.3,0.5,1.1,230.6,0.12,23.5,24.0
"17/07/05","09:00",0.0,24.8,93.7,1004.3,80.1,0.3,1.1,91.7,0.36,23.8,24.3
"17/07/05","10:00",0.0,25.3,92.4,1004.3,333.9,1.0,2.0,330.2,0.39,24.0,24.7
"17/07/05","11:00",0.0,25.3,91.2,1004.5,327.7,1.5,2.4,323.3,0.42,23.8,24.4
"17/07/05","12:00",0.0,25.7,90.4,1004.1,326.1,1.3,4.2,335.8,0.62,24.0,25.0
"17/07/05","13:00",0.0,25.8,89.2,1003.8,323.8,2.8,5.5,331.7,0.64,23.9,24.9
"17/07/05","14:00",0.0,28.2,78.3,1002.9,288.8,1.2,5.5,328.1,1.70,24.1,25.6
"17/07/05","15:00",0.0,26.6,81.1,1003.4,261.2,2.2,5.1,304.2,0.65,23.1,26.0
"17/07/05","16:00",0.0,24.5,89.4,1003.8,322.8,2.2,6.7,319.3,0.21,22.7,25.6
"17/07/05","17:00",0.0,24.6,90.7,1003.4,295.9,1.6,3.1,333.6,0.15,23.0,25.4
"17/07/05","18:00",0.0,24.8,89.3,1003.8,308.3,1.3,4.3,337.0,0.24,23.0,25.2
"17/07/05","19:00",0.0,24.2,89.8,1004.3,321.4,1.2,3.2,332.9,0.06,22.5,25.2
"17/07/05","20:00",0.0,23.6,90.9,1005.0,295.8,1.1,4.3,331.4,0.00,22.1,24.9
"17/07/05","21:00",0.0,22.9,93.4,1005.7,301.9,2.1,4.0,327.3,0.00,21.8,24.7
"17/07/05","22:00",0.0,22.5,94.2,1006.0,312.8,2.8,4.3,327.1,0.00,21.6,24.4
"17/07/05","23:00",0.0,21.9,94.7,1006.9,320.6,2.0,4.2,319.1,0.00,21.1,24.2
"17/07/05","24:00",0.0,21.7,94.8,1006.9,315.8,3.9,5.8,328.3,0.00,20.9,23.9
"17/07/06","01:00",0.0,21.2,94.9,1006.7,302.8,1.7,5.2,327.4,0.00,20.4,23.9
"17/07/06","02:00",0.0,20.8,95.7,1006.7,314.1,2.2,3.7,329.5,0.00,20.1,23.6
"17/07/06","03:00",0.0,20.2,96.2,1007.1,301.6,1.0,4.2,317.9,0.00,19.6,23.2
"17/07/06","04:00",0.0,19.8,96.4,1006.9,318.4,1.7,3.7,318.1,0.00,19.3,22.9
"17/07/06","05:00",0.0,19.8,97.0,1007.4,320.0,1.2,2.9,323.5,0.00,19.4,22.9
"17/07/06","06:00",0.0,20.4,97.1,1007.6,334.4,2.1,3.2,320.2,0.00,20.0,22.7
"17/07/06","07:00",0.0,23.0,90.8,1007.4,337.8,0.6,3.3,329.1,0.30,21.5,22.7
"17/07/06","08:00",0.0,24.3,85.7,1008.1,315.2,2.1,4.0,330.2,0.77,21.8,23.1
"17/07/06","09:00",0.0,26.4,75.8,1006.4,207.1,0.8,6.0,334.7,1.60,21.8,24.1
"17/07/06","10:00",0.0,26.7,73.4,1006.7,282.7,1.3,3.6,332.0,1.71,21.6,24.8
"17/07/06","11:00",0.0,29.0,61.6,1006.9,300.1,1.2,4.1,231.9,3.01,20.9,25.8
"17/07/06","12:00",0.0,29.6,56.7,1006.7,215.4,1.5,4.0,228.5,3.47,20.1,27.0
"17/07/06","13:00",0.0,30.8,54.3,1005.7,222.9,1.2,4.2,221.3,3.43,20.5,28.0
"17/07/06","14:00",0.0,31.4,52.4,1005.2,205.2,1.5,3.5,227.7,2.78,20.5,27.7
"17/07/06","15:00",0.0,31.8,50.7,1004.3,285.4,1.1,3.6,230.7,1.69,20.4,28.0
"17/07/06","16:00",0.0,31.4,51.0,1004.3,298.3,1.3,3.9,342.9,2.10,20.1,28.1
"17/07/06","17:00",0.0,31.3,49.3,1004.1,328.1,1.5,3.6,329.6,1.30,19.5,28.1
"17/07/06","18:00",0.0,30.3,56.0,1003.4,335.1,0.8,2.9,344.5,0.46,20.6,28.0
"17/07/06","19:00",0.0,27.7,72.8,1003.4,331.9,1.3,3.6,327.7,0.14,22.4,27.6
"17/07/06","20:00",0.0,26.4,75.6,1004.5,306.7,1.2,2.4,344.3,0.00,21.8,27.2
"17/07/06","21:00",0.0,24.7,82.0,1005.7,293.1,1.0,2.4,334.0,0.00,21.5,26.8
"17/07/06","22:00",0.0,23.8,85.7,1005.7,296.4,1.1,2.0,308.3,0.00,21.3,26.1
"17/07/06","23:00",0.0,23.1,88.6,1006.2,285.7,1.1,2.5,344.6,0.00,21.2,25.5
"17/07/06","24:00",0.0,22.8,89.6,1006.2,322.1,1.5,2.4,313.3,0.00,21.0,25.2
"17/07/07","01:00",0.0,22.8,89.2,1006.2,331.2,1.6,4.0,329.8,0.00,21.0,24.9
"17/07/07","02:00",0.0,22.9,89.2,1006.2,324.9,2.1,3.2,331.7,0.00,21.1,24.7
"17/07/07","03:00",0.0,22.8,88.3,1006.4,322.4,1.3,3.7,334.3,0.00,20.8,24.7
"17/07/07","04:00",0.0,22.1,90.2,1006.2,328.8,1.3,2.5,325.9,0.00,20.5,24.3
"17/07/07","05:00",0.0,22.2,90.5,1006.2,322.8,2.0,3.6,326.9,0.00,20.6,24.2
"17/07/07","06:00",0.0,22.7,90.7,1006.4,329.6,1.1,2.7,339.7,0.05,21.1,23.8
"17/07/07","07:00",0.0,24.9,83.1,1006.2,284.6,0.5,1.7,327.6,0.34,21.9,24.0
"17/07/07","08:00",0.0,26.5,76.8,1005.7,143.9,0.1,1.7,343.0,0.87,22.1,24.5
"17/07/07","09:00",0.0,28.9,71.0,1006.0,129.8,1.0,3.4,121.1,1.70,23.2,25.3
"17/07/07","10:00",0.0,29.2,69.4,1006.7,181.2,1.2,3.1,208.4,2.37,23.1,26.3
"17/07/07","11:00",0.0,30.5,66.9,1006.0,173.0,1.2,4.0,201.6,2.15,23.7,27.2
"17/07/07","12:00",0.0,30.5,63.0,1005.2,205.9,1.5,4.1,220.2,1.74,22.7,27.3
"17/07/07","13:00",0.0,31.2,61.3,1005.2,248.8,1.3,3.4,211.4,2.43,22.9,28.0
"17/07/07","14:00",0.0,32.9,58.5,1005.5,212.5,1.0,3.9,210.5,2.69,23.7,28.0
"17/07/07","15:00",0.0,33.4,53.8,1004.8,233.9,1.5,5.1,224.3,2.74,22.8,28.7
"17/07/07","16:00",0.0,33.0,56.1,1004.3,223.7,2.3,5.0,230.4,2.53,23.1,29.4
"17/07/07","17:00",0.0,29.3,64.2,1002.6,97.4,0.8,5.4,207.4,1.04,21.9,29.2
"17/07/07","18:00",0.0,26.6,86.1,1003.4,211.9,0.6,6.3,347.1,0.25,24.1,27.3
"17/07/07","19:00",0.0,25.5,88.0,1004.5,287.3,0.7,3.1,174.4,0.26,23.4,27.4
"17/07/07","20:00",0.0,24.9,91.2,1005.2,307.0,0.8,2.2,328.0,0.01,23.4,27.1
"17/07/07","21:00",0.0,24.5,92.8,1005.5,316.8,1.2,2.4,325.1,0.00,23.3,26.5
"17/07/07","22:00",0.0,23.9,93.5,1005.7,313.0,1.0,2.0,339.9,0.00,22.8,26.2
"17/07/07","23:00",0.0,23.5,94.1,1006.4,293.4,1.1,2.2,318.7,0.00,22.5,25.8
"17/07/07","24:00",0.0,22.9,94.6,1006.2,313.4,1.6,2.1,320.8,0.00,22.0,25.6
"17/07/08","01:00",0.0,22.9,94.8,1006.0,277.0,1.2,2.2,261.6,0.00,22.1,25.3
"17/07/08","02:00",0.0,22.9,94.7,1005.7,281.4,1.0,3.4,325.1,0.00,22.0,25.3
"17/07/08","03:00",0.0,22.4,94.9,1006.0,275.1,0.8,3.1,319.4,0.00,21.6,25.0
"17/07/08","04:00",0.0,22.2,95.3,1006.2,299.2,1.1,2.5,321.5,0.00,21.5,24.7
"17/07/08","05:00",0.0,21.9,95.5,1006.4,296.2,1.2,1.9,333.0,0.00,21.2,24.6
"17/07/08","06:00",0.0,22.3,95.7,1006.4,315.6,1.8,3.3,317.8,0.00,21.6,24.4
"17/07/08","07:00",0.0,24.9,89.3,1006.7,345.5,0.7,3.1,331.0,0.19,23.1,24.3
"17/07/08","08:00",0.0,27.3,81.2,1006.4,99.8,0.6,1.4,95.3,0.93,23.8,24.9
"17/07/08","09:00",0.0,29.1,75.9,1005.5,69.3,0.7,2.4,85.0,1.64,24.5,25.5
"17/07/08","10:00",0.0,29.6,73.9,1005.7,163.1,0.7,2.6,53.0,1.92,24.5,26.5
"17/07/08","11:00",0.0,31.2,67.7,1006.4,196.0,1.0,2.7,179.5,2.43,24.6,27.3
"17/07/08","12:00",0.0,32.1,64.9,1006.0,148.8,1.0,3.4,221.1,2.06,24.7,28.1
"17/07/08","13:00",0.0,33.6,55.9,1006.0,166.9,1.3,3.3,223.0,3.05,23.6,28.8
"17/07/08","14:00",0.0,33.7,56.7,1005.5,185.7,0.6,3.9,221.4,2.51,23.9,28.9
"17/07/08","15:00",0.0,34.0,57.0,1004.3,260.6,1.0,4.0,193.1,2.09,24.3,29.1
"17/07/08","16:00",0.0,34.2,55.0,1004.1,309.9,1.5,4.5,1.7,2.36,23.9,29.7
"17/07/08","17:00",0.0,32.1,61.2,1003.4,268.5,1.0,5.6,349.5,1.28,23.7,29.6
"17/07/08","18:00",0.0,28.5,72.4,1002.4,36.1,1.0,3.4,342.0,0.04,23.1,29.1
"17/07/08","19:00",0.0,25.7,88.5,1003.8,292.4,1.0,4.4,343.8,0.00,23.7,28.1
"17/07/08","20:00",0.0,25.0,90.8,1004.1,351.5,0.3,2.2,349.5,0.00,23.4,27.5
"17/07/08","21:00",0.0,24.6,92.5,1003.8,349.0,0.7,1.7,345.9,0.00,23.3,27.0
"17/07/08","22:00",0.0,24.2,93.3,1004.5,268.6,0.2,1.6,340.5,0.00,23.1,26.8
"17/07/08","23:00",0.0,23.8,93.8,1004.5,264.5,0.3,1.6,332.5,0.00,22.8,26.2
"17/07/08","24:00",0.0,23.7,94.0,1004.8,288.9,0.3,1.4,333.8,0.00,22.7,26.2
"17/07/09","01:00",0.0,23.9,93.1,1004.5,335.3,1.0,3.1,341.3,0.00,22.8,25.9
"17/07/09","02:00",0.0,23.7,93.6,1004.8,338.0,1.1,2.4,346.2,0.00,22.6,25.7
"17/07/09","03:00",0.0,23.9,92.8,1004.5,339.6,1.1,3.1,333.0,0.00,22.7,25.5
"17/07/09","04:00",0.0,23.3,93.3,1004.8,313.5,1.1,2.5,336.4,0.00,22.2,25.2
"17/07/09","05:00",0.0,22.9,94.3,1005.0,301.4,1.0,1.7,318.7,0.00,22.0,24.8
"17/07/09","06:00",0.0,23.1,94.8,1005.0,288.5,0.8,1.6,330.1,0.00,22.3,25.0
"17/07/09","07:00",0.0,23.8,94.6,1005.0,327.2,1.1,1.6,335.3,0.03,22.9,25.1
"17/07/09","08:00",0.0,24.8,93.0,1005.0,277.0,0.6,1.3,343.6,0.20,23.6,25.2
"17/07/09","09:00",0.0,25.6,91.2,1005.0,336.0,0.7,1.3,346.8,0.24,24.1,25.2
"17/07/09","10:00",0.0,26.3,89.7,1005.2,339.2,0.6,1.4,336.8,0.32,24.5,25.4
"17/07/09","11:00",0.0,27.4,88.2,1005.0,189.9,0.2,1.4,234.4,0.60,25.3,25.6
"17/07/09","12:00",0.0,27.8,84.0,1003.4,66.9,0.3,1.2,345.2,0.85,24.9,25.9
"17/07/09","13:00",0.0,27.9,80.6,1002.9,330.5,0.2,1.4,354.4,0.70,24.3,26.2
"17/07/09","14:00",0.0,28.6,80.0,1002.6,291.2,0.3,1.4,347.2,0.80,24.8,26.4
"17/07/09","15:00",0.0,29.2,78.3,1002.4,310.8,0.5,1.7,358.0,0.77,25.1,26.7
"17/07/09","16:00",0.0,29.5,77.6,1002.4,340.8,0.6,1.6,349.5,0.75,25.2,27.0
"17/07/09","17:00",0.0,27.5,87.5,1001.9,314.1,0.7,1.8,341.3,0.13,25.3,26.7
"17/07/09","18:00",0.0,22.6,91.2,1003.8,325.8,1.6,10.2,183.1,0.00,21.1,25.4
"17/07/09","19:00",0.0,22.6,93.0,1004.5,307.1,1.1,2.1,326.6,0.00,21.5,25.4
"17/07/09","20:00",0.0,22.4,93.9,1004.3,348.8,0.5,1.7,241.5,0.00,21.4,25.3
"17/07/09","21:00",0.0,22.4,94.4,1004.5,279.3,0.6,1.4,345.5,0.00,21.5,25.1
"17/07/09","22:00",0.0,22.4,95.0,1004.5,333.8,0.5,1.3,343.0,0.00,21.6,24.9
"17/07/09","23:00",0.0,22.4,95.4,1004.8,333.1,0.5,1.4,344.3,0.00,21.7,24.8
"17/07/09","24:00",0.0,22.4,95.7,1004.3,271.7,0.3,1.2,333.9,0.00,21.7,24.5
"17/07/10","01:00",0.0,22.4,95.9,1004.3,287.1,0.6,1.2,339.5,0.00,21.8,24.4
"17/07/10","02:00",0.0,22.4,96.1,1003.8,184.1,0.1,1.2,340.2,0.00,21.8,24.3
"17/07/10","03:00",0.0,22.5,96.2,1003.8,301.5,0.5,1.2,341.3,0.00,21.9,24.4
"17/07/10","04:00",0.0,22.6,96.4,1003.4,282.7,0.6,1.2,330.0,0.00,22.0,24.1
"17/07/10","05:00",0.0,22.9,96.5,1004.1,277.2,1.7,2.2,248.1,0.00,22.4,24.0
"17/07/10","06:00",0.0,23.2,96.6,1004.5,292.8,1.7,3.2,318.5,0.00,22.7,24.1
"17/07/10","07:00",0.0,23.6,96.5,1004.8,302.4,1.6,3.5,323.7,0.02,23.1,24.3
"17/07/10","08:00",0.0,24.7,95.2,1004.5,319.1,1.3,2.7,323.3,0.41,23.9,24.1
"17/07/10","09:00",0.0,26.6,86.9,1004.3,328.5,1.2,2.6,323.3,1.08,24.3,25.0
"17/07/10","10:00",0.0,29.0,77.8,1004.8,9.4,1.1,2.5,334.7,1.72,24.8,25.6
"17/07/10","11:00",0.0,30.7,73.5,1005.5,183.3,1.0,2.9,185.1,2.05,25.5,26.3
"17/07/10","12:00",0.0,31.1,65.1,1005.5,198.4,1.3,2.9,217.1,2.46,23.8,27.2
"17/07/10","13:00",0.0,31.8,62.4,1005.2,189.1,1.1,2.5,220.9,2.70,23.8,28.0
"17/07/10","14:00",0.0,31.9,63.9,1004.3,232.7,0.7,3.3,210.6,1.72,24.3,28.2
"17/07/10","15:00",0.0,32.2,63.3,1004.1,206.8,0.8,2.5,212.7,1.56,24.4,28.8
"17/07/10","16:00",0.0,33.1,62.7,1003.8,197.6,1.0,2.5,225.7,1.59,25.1,28.6
"17/07/10","17:00",0.0,31.3,66.4,1002.9,205.0,1.5,3.5,225.7,0.76,24.3,28.8
"17/07/10","18:00",0.0,31.4,66.6,1003.1,198.0,1.8,4.3,227.3,0.58,24.5,28.5
"17/07/10","19:00",0.0,30.7,67.9,1003.6,49.9,1.2,2.2,348.2,0.33,24.1,28.1
"17/07/10","20:00",0.0,28.4,76.5,1003.4,350.7,0.8,2.7,45.6,0.00,23.9,27.9
"17/07/10","21:00",0.0,27.1,83.6,1003.8,310.5,1.5,2.2,333.2,0.00,24.1,27.5
"17/07/10","22:00",0.0,25.8,88.0,1004.8,306.0,1.2,2.5,334.3,0.00,23.7,26.9
"17/07/10","23:00",0.0,25.6,89.1,1005.2,298.7,1.1,3.1,328.8,0.00,23.7,26.7
"17/07/10","24:00",0.0,24.7,91.3,1005.7,317.9,0.8,2.2,318.6,0.00,23.2,26.3
"17/07/11","01:00",0.0,24.3,92.2,1005.5,294.3,1.1,2.5,321.1,0.00,23.0,26.1
"17/07/11","02:00",0.0,23.8,93.2,1005.5,296.5,1.0,2.8,328.0,0.00,22.7,26.0
"17/07/11","03:00",0.0,23.5,94.0,1005.2,300.9,1.3,1.9,322.4,0.00,22.5,25.3
"17/07/11","04:00",0.0,23.5,94.7,1005.5,300.0,1.2,2.0,317.0,0.00,22.6,25.3
"17/07/11","05:00",0.0,23.3,94.9,1006.2,313.6,1.6,2.2,322.0,0.00,22.5,25.2
"17/07/11","06:00",0.0,24.0,95.0,1006.2,321.9,1.1,2.4,326.8,0.01,23.2,24.8
"17/07/11","07:00",0.0,27.5,82.6,1006.4,19.5,0.3,2.2,320.4,0.29,24.3,25.2
"17/07/11","08:00",0.0,29.5,72.0,1006.4,136.9,0.6,1.6,229.7,0.95,24.0,25.3
"17/07/11","09:00",0.0,30.0,71.4,1006.9,128.6,1.1,3.6,114.7,1.78,24.3,25.9
"17/07/11","10:00",0.0,31.4,63.7,1007.4,144.7,0.8,3.6,111.4,2.43,23.7,27.2
"17/07/11","11:00",0.0,32.4,59.1,1007.1,161.1,1.1,4.3,224.5,3.06,23.4,28.1
"17/07/11","12:00",0.0,32.8,61.4,1006.2,172.0,1.5,4.0,194.7,2.62,24.4,29.0
"17/07/11","13:00",0.0,33.8,59.9,1006.4,280.2,1.1,4.0,204.1,2.40,25.0,29.6
"17/07/11","14:00",0.0,33.5,58.7,1006.2,209.8,1.0,4.1,348.2,2.48,24.3,29.6
"17/07/11","15:00",0.0,34.8,51.6,1005.2,223.8,1.8,6.0,203.7,2.87,23.4,29.7
"17/07/11","16:00",0.0,34.3,54.2,1005.2,225.9,1.8,4.8,220.8,2.33,23.8,30.2
"17/07/11","17:00",0.0,33.8,55.0,1004.8,225.4,1.8,5.6,228.5,1.54,23.5,30.0
"17/07/11","18:00",0.0,33.1,55.4,1004.5,185.9,1.3,5.0,225.5,0.33,23.0,29.8
"17/07/11","19:00",0.0,30.9,64.6,1003.8,200.3,1.0,2.6,210.0,0.06,23.5,29.5
"17/07/11","20:00",0.0,29.4,70.5,1003.8,333.0,0.7,2.6,339.5,0.00,23.5,28.8
"17/07/11","21:00",0.0,28.5,74.0,1004.8,318.9,0.7,3.2,332.5,0.00,23.5,28.5
"17/07/11","22:00",0.0,27.5,79.6,1005.0,317.3,0.6,2.4,351.3,0.00,23.7,28.0
"17/07/11","23:00",0.0,26.9,82.3,1005.0,321.8,0.7,2.2,346.9,0.00,23.7,27.6
"17/07/11","24:00",0.0,26.9,82.2,1005.7,340.7,0.6,2.8,336.2,0.00,23.6,27.2
"17/07/12","01:00",0.0,26.0,85.5,1005.5,323.3,0.8,1.3,306.7,0.00,23.4,27.2
"17/07/12","02:00",0.0,25.4,88.2,1005.5,291.4,0.6,1.4,328.8,0.00,23.3,26.7
"17/07/12","03:00",0.0,25.2,88.2,1005.5,279.0,0.6,1.6,344.3,0.00,23.1,26.4
"17/07/12","04:00",0.0,25.4,88.9,1005.7,329.0,0.7,1.3,326.9,0.00,23.5,26.4
"17/07/12","05:00",0.0,25.0,90.1,1005.7,317.6,0.6,1.2,329.4,0.00,23.3,26.1
"17/07/12","06:00",0.0,24.7,91.0,1005.7,291.8,0.6,1.1,329.1,0.00,23.2,25.9
"17/07/12","07:00",0.0,26.4,88.2,1005.5,307.7,0.3,1.1,313.4,0.12,24.3,25.9
"17/07/12","08:00",0.0,28.3,82.3,1005.7,335.2,0.5,2.0,343.6,0.43,25.0,26.2
"17/07/12","09:00",0.0,29.2,78.4,1005.2,256.1,0.5,2.9,336.8,1.04,25.1,26.5
"17/07/12","10:00",0.0,30.5,75.3,1005.2,181.2,1.5,2.9,194.0,1.20,25.7,27.1
"17/07/12","11:00",0.0,31.2,70.6,1005.2,158.7,1.3,3.3,214.8,1.49,25.3,27.5
"17/07/12","12:00",0.0,31.7,70.3,1004.8,341.5,0.8,3.3,191.4,1.03,25.7,27.9
"17/07/12","13:00",0.0,32.3,65.4,1005.0,271.6,0.7,3.7,351.7,2.00,25.0,28.7
"17/07/12","14:00",0.0,33.2,60.3,1003.8,245.9,1.7,4.8,225.0,1.76,24.5,29.0
"17/07/12","15:00",0.0,31.1,65.6,1003.6,175.8,1.1,5.1,229.4,1.80,23.9,29.1
"17/07/12","16:00",0.0,29.9,75.7,1001.7,324.9,0.5,2.4,218.5,0.23,25.2,28.7
"17/07/12","17:00",0.0,28.7,75.6,1001.5,297.7,0.8,4.0,242.9,0.05,24.0,28.5
"17/07/12","18:00",0.0,28.7,76.7,1001.7,331.8,1.1,5.0,338.1,0.10,24.2,27.9
"17/07/12","19:00",0.0,28.5,77.9,1001.7,338.1,1.3,2.5,341.5,0.08,24.3,27.8
"17/07/12","20:00",0.0,27.1,82.8,1002.6,320.9,1.3,2.4,343.7,0.00,24.0,27.4
"17/07/12","21:00",0.0,26.6,83.5,1003.4,276.5,0.8,2.4,324.3,0.00,23.6,27.1
"17/07/12","22:00",0.0,25.9,86.6,1003.6,317.2,0.7,2.7,339.5,0.00,23.5,26.7
"17/07/12","23:00",0.0,25.3,88.6,1003.4,331.6,1.3,2.5,342.0,0.00,23.3,26.4
"17/07/12","24:00",0.0,25.0,88.6,1003.4,327.7,1.1,2.9,334.7,0.00,23.0,26.1
"17/07/13","01:00",0.0,24.5,90.3,1002.6,329.3,1.7,2.9,333.2,0.00,22.8,26.0
"17/07/13","02:00",0.0,23.9,90.8,1003.4,287.4,0.6,2.2,326.7,0.00,22.3,25.7
"17/07/13","03:00",0.0,24.0,92.1,1003.1,303.8,0.6,1.4,338.1,0.00,22.7,25.7
"17/07/13","04:00",0.0,23.9,92.1,1003.4,293.1,0.6,2.2,335.3,0.00,22.6,25.4
"17/07/13","05:00",0.0,24.1,91.8,1003.4,320.6,0.8,1.8,334.1,0.00,22.7,25.4
"17/07/13","06:00",0.0,24.4,92.1,1003.6,306.4,0.6,1.8,330.0,0.00,23.1,25.3
"17/07/13","07:00",0.0,25.6,89.7,1003.6,293.6,0.7,1.4,325.0,0.09,23.8,25.3
"17/07/13","08:00",0.0,27.2,84.4,1004.3,308.5,0.5,1.8,323.7,0.31,24.4,25.5
"17/07/13","09:00",0.0,29.2,77.0,1003.6,44.1,0.6,1.7,8.3,1.25,24.8,26.3
"17/07/13","10:00",0.0,30.6,71.8,1003.6,149.4,1.1,2.9,219.9,1.25,25.0,26.8
"17/07/13","11:00",0.0,31.8,67.0,1004.5,131.4,1.3,4.8,221.8,2.63,25.0,27.8
"17/07/13","12:00",0.0,33.2,62.2,1004.1,193.8,1.7,3.9,208.5,2.72,25.0,28.8
"17/07/13","13:00",0.0,32.2,63.9,1003.4,151.8,1.5,3.9,187.8,2.28,24.5,29.2
"17/07/13","14:00",0.0,33.7,59.8,1003.1,181.7,2.1,3.6,194.5,2.75,24.8,29.6
"17/07/13","15:00",0.0,33.7,55.1,1002.9,247.2,1.3,4.5,228.9,2.49,23.5,29.8
"17/07/13","16:00",0.0,34.0,48.8,1002.9,229.7,1.1,3.9,214.5,1.86,21.7,30.1
"17/07/13","17:00",0.0,34.0,46.5,1002.6,211.7,1.2,2.8,210.4,1.25,21.0,30.0
"17/07/13","18:00",0.0,33.5,48.0,1002.2,216.4,1.6,3.7,218.3,0.61,21.0,29.9
"17/07/13","19:00",0.0,31.7,64.4,1001.9,102.8,0.6,2.9,227.0,0.26,24.2,29.5
"17/07/13","20:00",0.0,30.3,59.1,1001.2,294.0,0.7,2.8,313.9,0.00,21.5,29.0
"17/07/13","21:00",0.0,27.6,70.2,1002.6,341.7,1.0,2.8,334.1,0.00,21.7,28.2
"17/07/13","22:00",0.0,26.9,73.5,1003.1,320.8,0.7,4.3,341.8,0.00,21.8,27.8
"17/07/13","23:00",0.0,25.9,77.7,1003.4,323.3,1.7,2.9,340.0,0.00,21.7,27.2
"17/07/13","24:00",0.0,25.0,82.7,1003.1,297.8,0.7,3.3,325.5,0.00,21.9,26.8
"17/07/14","01:00",0.0,24.7,85.1,1003.6,300.9,0.7,1.7,338.2,0.00,22.1,26.7
"17/07/14","02:00",0.0,25.2,84.3,1003.8,295.6,0.8,2.1,325.3,0.00,22.4,26.3
"17/07/14","03:00",0.0,25.3,85.1,1003.4,308.5,1.0,2.1,345.2,0.00,22.7,26.3